Showing default

BADR 7, 41029

Orbit data source: Space-Track

BADR 7, 41029 is a payload satellite owned by Arabsat (SA) in GEO that was launched on Tue, 10 Nov 2015 UTC via an ARIANE 5ECA launch vehicle from the French Guiana (FRGUI). Payload-class satellites include a variety of spacecraft equipped with specific instruments for various scientific and technological missions. These include communications satellites like Starlink; space stations such as the ISS; scientific satellites like the Hubble; Earth observation satellites from companies like Planet Labs, Umbra, and HawkEye 360; GPS; miniature CubeSats for education and research; and military/defense satellites.

Not visible in the next 10 days
Identifier
41029, 2015-065B
Orbit
GEO
Country
Flag of ABAB
Related business
Manufacturer
ADS/Bremen
Mission
Operational Commercial Communications
Bus & Motor
EUROSTAR 3000LS, R-4D?
Mass
5,799 kg wet, ~3,000 kg dry
Launch date (UTC)
2015-11-10 (11 years ago)
Launch vehicle
ARIANE 5ECA
Launch site
French Guiana (FRGUI)
Object type
Payload
Rocket body
Debris
Shape & HBR
Box + 2 Pan, 15.4 m
Radar Cross Section
30.523 m², Large (>1 m²)

Expand to show TLE details & history
Last TLE update: 13 hours ago

TLE from 13 hours ago
0 BADR 7
1 41029U 15065B   26146.23059611  .00000146  00000-0  00000-0 0  9990
2 41029   0.0305 237.7904 0002714 324.2025 150.8013  1.00271823 38542
Epoch: 2026-05-26T05:32Z
TLE epoch observation values (Epoch: 2026-05-26T05:32:03.503Z)
Latitude
0.04106°
Longitude
25.98858°
Altitude
35,796.049 km
Speed
3.074 km/s
True Right ascension
23h 31m 14s
True Declination
0° 02' 28"
Sunlit
Object was in daylight at epoch
Visualization orbit readout
Latitude
Unknown
Longitude
Unknown
Altitude
Unknown
Speed
Unknown
Apparent Right ascension
Unknown
Apparent Declination
Unknown
Sunlit
N/A
Visualization observer readout
Local Sidereal Time
03:23:06
Azimuth
Unknown
Elevation
Unknown
Doppler factor
Unknown
Orbital elements
Apogee altitude
35,799.098 km
Perigee altitude
35,776.211 km
Semi-major axis
42,165.792 km
Eccentricity
0.00027
Inclination
0.0305°
RAAN
237.7904°
Arg. of periapsis
324.2025°
True anomaly
150.81647°
Mean anomaly
150.8013°
Eccentric anomaly
150.80888°
Mean motion
0.25067 °/min
Orbital period
1,436.15 mins
BSTAR
0
Loading maneuver chart data...
Computing Atmospheric mass density...
Loading historical data...
Loading historical data...
Loading historical data...
Loading historical data...
Loading historical data...
Loading historical data...
Loading historical data...
Other satellites on launch #65 in the year 2015 (2015-11-10 UTC)

Documentation

Showing up to 5 results
|